Weather History for KMUI - March, 2012

Change the Weather History Date:

Monday, March 5, 2012

  Actual Average (KMDT) Record (KMDT)
Temperature  
Mean Temperature 34 °F 38 °F  
Max Temperature 42 °F 46 °F 74 °F (1946)
Min Temperature 26 °F 30 °F 10 °F (1978)
Degree Days  
Heating Degree Days 31 27  
Month to date heating degree days 138  
Since 1 July heating degree days 4126  
Cooling Degree Days 0 0  
Month to date cooling degree days 0  
Year to date cooling degree days 0  
Moisture  
Dew Point 14 °F    
Average Humidity 44    
Maximum Humidity 72    
Minimum Humidity 31    
Precipitation  
Precipitation 0.00 in 0.09 in 1.76 in (2008)
Month to date precipitation 0.45  
Year to date precipitation 5.72  
Snow  
Snow 0.00 in 0.30 in 13.00 in (1902)
Month to date snowfall 1.3  
Since 1 July snowfall 26.3  
Snow Depth -    
Sea Level Pressure  
Sea Level Pressure 30.10 in    
Wind  
Wind Speed 7 mph (West)    
Max Wind Speed 14 mph    
Max Gust Speed 25 mph    
Visibility 10 miles    
Events      
T = Trace of Precipitation, MM = Missing Value Source: NWS Daily Summary

Daily Weather History Graph

Daily Weather History Graph

Search for Another Location

Airport or City:

Trip Planner

Search our weather history database for the weather conditions in past years. The results will help you decide how hot, cold, wet, or windy it might be!

Date:

Astronomy

Mar. 05, 2012 Rise Set
Actual Time 6:33 AM EST 6:02 PM EST
Civil Twilight 6:05 AM EST 6:30 PM EST
Nautical Twilight 5:34 AM EST 7:01 PM EST
Astronomical Twilight 5:02 AM EST 7:33 PM EST
Moon 3:18 PM EST (3/5) 4:31 AM EST (3/5)
Length of Visible Light 12h 24m
Length of Day
11h 29m
Waxing Gibbous, 91% of the Moon is Illuminated
Mar 5
Waxing Gibbous
Mar 8
Full
Mar 14
Last Quarter
Mar 22
New
Mar 30
First Quarter

Hourly Weather History & Observations

Time (EST) Temp. Windchill Dew Point Humidity Pressure Visibility Wind Dir Wind Speed Gust Speed Precip Events Conditions
12:55 AM 31.3 °F 26.6 °F 16.9 °F 55% 29.87 in 10.0 mi West 4.6 mph - N/A   Partly Cloudy
1:55 AM 30.7 °F 24.9 °F 16.3 °F 55% 29.88 in 10.0 mi WSW 5.8 mph - N/A   Clear
2:55 AM 30.0 °F 26.5 °F 16.7 °F 58% 29.88 in 10.0 mi West 3.5 mph - N/A   Clear
3:55 AM 29.5 °F 21.8 °F 16.7 °F 59% 29.90 in 10.0 mi WSW 8.1 mph - N/A   Clear
4:55 AM 26.8 °F - 18.9 °F 72% 29.92 in 10.0 mi Calm Calm - N/A   Clear
5:55 AM 29.1 °F 23.0 °F 16.5 °F 59% 29.93 in 10.0 mi West 5.8 mph - N/A   Clear
6:55 AM 27.9 °F 24.0 °F 16.9 °F 63% 29.96 in 10.0 mi SSW 3.5 mph - N/A   Clear
7:55 AM 31.5 °F 25.8 °F 18.5 °F 59% 30.00 in 10.0 mi Variable 5.8 mph - N/A   Clear
8:55 AM 34.3 °F 27.7 °F 16.2 °F 47% 30.02 in 10.0 mi West 8.1 mph - N/A   Clear
9:55 AM 36.0 °F 28.5 °F 15.6 °F 44% 30.05 in 10.0 mi West 10.4 mph - N/A   Clear
10:55 AM 37.8 °F 30.2 °F 16.5 °F 42% 30.06 in 10.0 mi West 11.5 mph - N/A   Clear
11:55 AM 39.6 °F 32.5 °F 16.0 °F 38% 30.07 in 10.0 mi West 11.5 mph 18.4 mph N/A   Partly Cloudy
12:55 PM 42.4 °F 36.5 °F 16.3 °F 35% 30.06 in 10.0 mi WNW 10.4 mph 17.3 mph N/A   Overcast
1:55 PM 40.5 °F 34.1 °F 16.2 °F 37% 30.07 in 10.0 mi WNW 10.4 mph - N/A   Mostly Cloudy
2:55 PM 39.6 °F 34.0 °F 13.5 °F 34% 30.09 in 10.0 mi WNW 8.1 mph - N/A   Scattered Clouds
3:55 PM 39.9 °F 32.9 °F 11.3 °F 31% 30.13 in 10.0 mi West 11.5 mph 25.3 mph N/A   Scattered Clouds
4:55 PM 39.0 °F 32.8 °F 10.9 °F 32% 30.17 in 10.0 mi NW 9.2 mph - N/A   Partly Cloudy
5:55 PM 37.6 °F 30.0 °F 12.0 °F 35% 30.20 in 10.0 mi West 11.5 mph 23.0 mph N/A   Clear
6:55 PM 36.9 °F 29.6 °F 9.1 °F 32% 30.25 in 10.0 mi WNW 10.4 mph 19.6 mph N/A   Clear
7:55 PM 35.4 °F 26.4 °F 9.9 °F 35% 30.29 in 10.0 mi West 13.8 mph 20.7 mph N/A   Clear
8:55 PM 34.0 °F 26.0 °F 5.7 °F 31% 30.34 in 10.0 mi WNW 10.4 mph 23.0 mph N/A   Clear
9:55 PM 32.2 °F 25.0 °F 5.7 °F 33% 30.39 in 10.0 mi NW 8.1 mph 20.7 mph N/A   Clear
10:55 PM 30.9 °F 23.5 °F 6.4 °F 36% 30.42 in 10.0 mi WNW 8.1 mph 24.2 mph N/A   Clear
11:55 PM 29.1 °F 23.0 °F 9.1 °F 43% 30.44 in 10.0 mi NW 5.8 mph - N/A   Clear